Regional Weather Roundup
Issued by NWS Bismarck, ND

Home | Current Version | Previous Version | Text Only | Print | Product List | Glossary On
Versions: 1 2 3 4 5 6 7 8 9 10 11 12 13 14 15 16 17 18 19 20 21 22 23 24 25 26 27 28 29 30 31 32 33 34 35 36 37 38 39 40 41 42 43 44 45 46 47 48 49 50
000
ASUS43 KBIS 230710
RWRBIS

NWR BROADCAST TEXT
NATIONAL WEATHER SERVICE BISMARCK ND
100 AM CST FRI FEB 23 2018

NOTE: "FAIR" INDICATES FEW OR NO CLOUDS BELOW 12,000 FEET WITH NO
SIGNIFICANT WEATHER AND/OR OBSTRUCTIONS TO VISIBILITY.


CITY           SKY/WX    TMP DP  RH WIND       PRES   REMARKS
WILLISTON      FAIR      -8 -13  78 SW3       30.25R
MINOT          FAIR       5  -2  72 W12       30.20F WCI -11
MINOT AFB      CLOUDY     1  -5  77 NW13      30.19F WCI -17
BISMARCK       CLOUDY    16   9  74 NW9       30.19F WCI   4
DICKINSON      FAIR      -1  -5  82 W14       30.14S WCI -20
GARRISON         N/A     -4  -9  79 NW10      30.18F WCI -21
HETTINGER ARPT PTCLDY     1  -5  75 NW10      30.14S WCI -15
JAMESTOWN      LGT SNOW  19  17  92 NW6       30.14F FOG     WCI  11
CARRINGTON     LGT SNOW  16  14  93 NW9       30.19S WCI   4
HAZEN            N/A      5   0  78 W8        30.22F WCI  -8
LINTON         LGT SNOW  16  14  93 NW6       30.18S WCI   7
MANDAN         CLOUDY    14   9  79 NW9       30.16F WCI   2
OAKES            N/A     19  19 100 N6        30.15F WCI  11
RUGBY          FAIR      -2  -6  84 NW8       30.19F WCI -17
STANLEY        FAIR      -8 -11  84 W3        30.21R
TIOGA          FAIR      -8 -11  84 W8        30.20S WCI -23
WATFORD CITY   FAIR      -8 -13  77 SW6       30.23S WCI -21
$$

CITY           SKY/WX    TMP DP  RH WIND       PRES   REMARKS
GRAND FORKS    LGT SNOW  20  17  88 CALM      30.21F FOG
GRAND FORKS AF FAIR      19  15  87 CALM      30.21F
DEVILS LAKE    CLOUDY     7   4  87 NW8       30.19F WCI  -6
FARGO          LGT SNOW  21  19  92 N8        30.18F FOG     WCI  11
CANDO          CLOUDY     7   5  92 NW12      30.20F WCI  -9
CAVALIER         N/A      7   5  92 CALM      30.22F
GRAFTON        PTSUNNY   12  10  92 CALM      30.24F
GWINNER          N/A     19  19 100 CALM      30.14F FOG
LANGDON        FAIR       1   0  92 NW9       30.17F WCI -14
ROLLA          FAIR       5  -2  72 NW5       30.16F WCI  -4
WALHALLA       FAIR      10   3  72 W6        30.22S WCI   1
$$

CITY           SKY/WX    TMP DP  RH WIND       PRES   REMARKS
ABERDEEN       LGT SNOW  22  20  92 N3        30.15S FOG
MOBRIDGE       LGT SNOW  19  15  84 NW7       30.12S FOG     WCI  10
BUFFALO          N/A      3  -4  72 NW9       30.06R WCI -12
RAPID CITY     CLEAR      2  -4  76 NW7       30.10F WCI -11
GLASGOW        MOCLDY   -15 -19  82 NW6       30.26S WCI -29
SIDNEY         CLEAR    -14 -18  82 CALM      30.27S
WOLF POINT     PTCLDY   -13 -19  75 W8        30.28F WCI -30
GLENDIVE       CLEAR     -5 -12  72 S5        30.23S WCI -16
MILES CITY     CLOUDY   -12 -14  90 W8        30.24R WCI -29
BAKER          PTCLDY    -5  -7  91 W5        30.18S WCI -16
$$

CITY           SKY/WX    TMP DP  RH WIND       PRES   REMARKS
BILLINGS       MOCLDY     4  -3  73 CALM      30.16S
GREAT FALLS    CLEAR     -6 -10  83 SW9       30.15S WCI -23
REGINA         PTCLDY    -4  -8  84 W10       30.20F WCI -21
ESTEVAN        PTCLDY    -9 -13  84 NW9       30.20F WCI -27
$$





USA.gov is the U.S. government's official web portal to all federal, state and local government web resources and services.